Other Surface Observations
Issued by NWS Charleston, SC

Home | Current Version | Previous Version | Text Only | Print | Product List | Glossary On
Versions: 1 2 3 4 5 6 7 8 9 10 11 12 13 14 15 16 17 18 19 20 21 22 23 24 25 26 27 28 29 30 31 32 33 34 35 36 37 38 39 40 41 42 43 44 45 46 47 48 49 50
524
SXUS52 KCHS 181927
OSOCHS

Marine Observations
National Weather Service Charleston SC
200 PM EST MON DEC 18 2017

...Downtown Charleston and Harbor...

CITY           SKY/WX    TMP DP  RH WIND       PRES   REMARKS
Waterfront Prk   N/A     69  63  81 VRB3      29.97F

...Lake Moultrie...

CITY           SKY/WX    TMP DP  RH WIND       PRES   REMARKS
Pinopolis        N/A     61  59  94 N5        30.04F

...Lake and Supplemental Coastal Observations...

STATION/POSITION TIME  TEMP    WIND        PRES    WAVE   SWELL
                       AIR SEA DIR/SP/G            HT/PER HT/PER/DIR
                 (UTC) (F)     (DEG/KT/KT) (MB)    (FT/S) (FT/S/D)
Fort Pulaski     1900   68 54  270/  5/  7 1021.2
Sapelo Island    1900   71     220/  6     1021.0
Winyah Bay       1830   71     250/  4     1020.0S
Lake Murray      1810          220/  8       N/A
ACE Basin NERRS  1845   66     240/  3     1021.0S


...C-MAN and Buoy Observations...

STATION/POSITION TIME  TEMP    WIND        PRES    WAVE   SWELL
                       AIR SEA DIR/SP/G            HT/PER HT/PER/DIR
                 (UTC) (F)     (DEG/KT/KT) (MB)    (FT/S) (FT/S/D)
Buoy 41004       1910   67 73  250/ 16/ 17 1020.0
Buoy 41008       1850   61 59  180/  8/ 10 1021.5F   2/10   2/ 80/10
Folly Beach CMAN 1900   58     220/  8/ 10 1020.7F
Capers NS Buoy   1908   55 56  230/ 12/ 14 1019.8F
Fripp NS Buoy    1908   56 55  230/ 10/ 12 1020.3F
5E St. Marys GA  1900      62                N/A     2/10


STATION/POSITION TIME  TEMP    WIND        PRES    WAVE   SWELL
                       AIR SEA DIR/SP/G            HT/PER HT/PER/DIR
                 (UTC) (F)     (DEG/KT/KT) (MB)    (FT/S) (FT/S/D)
Frying Pan Buoy  1910   67 71  250/ 14/ 16 1019.3
Buoy 41025       1910   62 72  290/  6/ 10 1019.0
Cape Lookout NC  1900          170/  6/  6 1019.2F
Buoy 41002       1850   73 75  240/ 17/ 19 1020.6F   4/ 5   2/120/ 9
Buoy 41010       NOT AVBL
St Augustine FL  1900   79 65  230/  4/  9 1022.1F

$$




USA.gov is the U.S. government's official web portal to all federal, state and local government web resources and services.